Find Starlink 11292

NORAD ID: 61203 Int'l Des: 2024-171 Owner: SPXS Country: US Constellation: starlink operational
LEOCIRCULAR

リアルタイム位置

3D地球を読み込み中...

Starlink 11292について

説明を読み込み中...

次回通過

Passes for default location (London). Set your location on the main map for personalized predictions.

高度履歴

Loading altitude history...

軌道要素

1 61203U 24171D 26124.56071004 -.00000721 00000-0 -11040-5 0 9998
2 61203 53.1607 260.8540 0000201 134.6275 225.4760 15.69695034 93176
Epoch: May 4, 2026 • Age: 34 hours

現在のステータス

高度 360.0 km
速度 7.70 km/s
衛星直下点 13.56°N, 53.25°E
打ち上げ日 Sep 20, 2024
運用期間 1.6 years
タイプ internet

技術仕様

分類 Payload
質量 960.00 kg
乾燥質量 910.00 kg
総質量 960.00 kg
長さ 0.30 m
直径 4.10 m
スパン 29.00 m
形状 Box + pan
製造者 SPXS
バスタイプ Starlink V2MD
フェーズステータス In Orbit
所有者/国 SPXS/US

Most Searched